Year,Month,Day,Hour,Minute,Value (Times are PST for temperature in C)
2016,08,27,00,00,22.30
2016,08,27,00,01,22.20
2016,08,27,00,02,22.20
2016,08,27,00,03,22.20
2016,08,27,00,04,22.10
2016,08,27,00,05,22.10
2016,08,27,00,06,22.10
2016,08,27,00,07,22.10
2016,08,27,00,08,22.10
2016,08,27,00,09,22.10
2016,08,27,00,10,22.10
2016,08,27,00,11,22.10
2016,08,27,00,12,22.10
2016,08,27,00,13,22.10
2016,08,27,00,14,22.10
2016,08,27,00,15,22.10
2016,08,27,00,16,22.10
2016,08,27,00,17,22.10
2016,08,27,00,18,22.00
2016,08,27,00,19,22.00
2016,08,27,00,20,22.00
2016,08,27,00,21,22.00
2016,08,27,00,22,21.90
2016,08,27,00,23,21.90
2016,08,27,00,24,21.90
2016,08,27,00,25,21.80
2016,08,27,00,26,21.80
2016,08,27,00,27,21.70
2016,08,27,00,28,21.70
2016,08,27,00,29,21.70
2016,08,27,00,30,21.60
2016,08,27,00,31,21.60
2016,08,27,00,32,21.60
2016,08,27,00,33,21.60
2016,08,27,00,34,21.60
2016,08,27,00,35,21.50
2016,08,27,00,36,21.40
2016,08,27,00,37,21.40
2016,08,27,00,38,21.40
2016,08,27,00,39,21.40
2016,08,27,00,40,21.30
2016,08,27,00,41,21.30
2016,08,27,00,42,21.30
2016,08,27,00,43,21.30
2016,08,27,00,44,21.30
2016,08,27,00,45,21.30
2016,08,27,00,46,21.30
2016,08,27,00,47,21.30
2016,08,27,00,48,21.30
2016,08,27,00,49,21.30
2016,08,27,00,50,21.20
2016,08,27,00,51,21.20
2016,08,27,00,52,21.20
2016,08,27,00,53,21.20
2016,08,27,00,54,21.10
2016,08,27,00,55,21.10
2016,08,27,00,56,21.10
2016,08,27,00,57,21.10
2016,08,27,00,58,21.00
2016,08,27,00,59,21.00
2016,08,27,01,00,21.10
2016,08,27,01,01,21.00
2016,08,27,01,02,21.00
2016,08,27,01,03,21.00
2016,08,27,01,04,21.00
2016,08,27,01,05,21.00
2016,08,27,01,06,21.00
2016,08,27,01,07,21.00
2016,08,27,01,08,21.00
2016,08,27,01,09,21.00
2016,08,27,01,10,21.00
2016,08,27,01,11,20.90
2016,08,27,01,12,20.90
2016,08,27,01,13,20.90
2016,08,27,01,14,20.90
2016,08,27,01,15,20.90
2016,08,27,01,16,20.80
2016,08,27,01,17,20.80
2016,08,27,01,18,20.80
2016,08,27,01,19,20.80
2016,08,27,01,20,20.80
2016,08,27,01,21,20.80
2016,08,27,01,22,20.70
2016,08,27,01,23,20.70
2016,08,27,01,24,20.70
2016,08,27,01,25,20.70
2016,08,27,01,26,20.60
2016,08,27,01,27,20.60
2016,08,27,01,28,20.60
2016,08,27,01,29,20.60
2016,08,27,01,30,20.60
2016,08,27,01,31,20.50
2016,08,27,01,32,20.50
2016,08,27,01,33,20.50
2016,08,27,01,34,20.50
2016,08,27,01,35,20.50
2016,08,27,01,36,20.50
2016,08,27,01,37,20.40
2016,08,27,01,38,20.40
2016,08,27,01,39,20.40
2016,08,27,01,40,20.40
2016,08,27,01,41,20.40
2016,08,27,01,42,20.40
2016,08,27,01,43,20.40
2016,08,27,01,44,20.40
2016,08,27,01,45,20.30
2016,08,27,01,46,20.30
2016,08,27,01,47,20.30
2016,08,27,01,48,20.30
2016,08,27,01,49,20.30
2016,08,27,01,50,20.30
2016,08,27,01,51,20.30
2016,08,27,01,52,20.30
2016,08,27,01,53,20.30
2016,08,27,01,54,20.20
2016,08,27,01,55,20.20
2016,08,27,01,56,20.20
2016,08,27,01,57,20.20
2016,08,27,01,58,20.20
2016,08,27,01,59,20.20
2016,08,27,02,00,20.20
2016,08,27,02,01,20.20
2016,08,27,02,02,20.20
2016,08,27,02,03,20.20
2016,08,27,02,04,20.20
2016,08,27,02,05,20.20
2016,08,27,02,06,20.20
2016,08,27,02,07,20.20
2016,08,27,02,08,20.20
2016,08,27,02,09,20.20
2016,08,27,02,10,20.20
2016,08,27,02,11,20.20
2016,08,27,02,12,20.20
2016,08,27,02,13,20.20
2016,08,27,02,14,20.20
2016,08,27,02,15,20.20
2016,08,27,02,16,20.20
2016,08,27,02,17,20.20
2016,08,27,02,18,20.20
2016,08,27,02,19,20.20
2016,08,27,02,20,20.20
2016,08,27,02,21,20.20
2016,08,27,02,22,20.20
2016,08,27,02,23,20.20
2016,08,27,02,24,20.20
2016,08,27,02,25,20.10
2016,08,27,02,26,20.10
2016,08,27,02,27,20.10
2016,08,27,02,28,20.10
2016,08,27,02,29,20.10
2016,08,27,02,30,19.90
2016,08,27,02,31,19.90
2016,08,27,02,32,19.90
2016,08,27,02,33,19.90
2016,08,27,02,34,19.90
2016,08,27,02,35,19.90
2016,08,27,02,36,19.90
2016,08,27,02,37,19.90
2016,08,27,02,38,19.90
2016,08,27,02,39,19.90
2016,08,27,02,40,19.90
2016,08,27,02,41,19.90
2016,08,27,02,42,19.80
2016,08,27,02,43,19.80
2016,08,27,02,44,19.80
2016,08,27,02,45,19.80
2016,08,27,02,46,19.70
2016,08,27,02,47,19.70
2016,08,27,02,48,19.70
2016,08,27,02,49,19.70
2016,08,27,02,50,19.70
2016,08,27,02,51,19.70
2016,08,27,02,52,19.70
2016,08,27,02,53,19.70
2016,08,27,02,54,19.60
2016,08,27,02,55,19.60
2016,08,27,02,56,19.60
2016,08,27,02,57,19.60
2016,08,27,02,58,19.60
2016,08,27,02,59,19.60
2016,08,27,03,00,19.60
2016,08,27,03,01,19.60
2016,08,27,03,02,19.60
2016,08,27,03,03,19.60
2016,08,27,03,04,19.60
2016,08,27,03,05,19.60
2016,08,27,03,06,19.60
2016,08,27,03,07,19.60
2016,08,27,03,08,19.60
2016,08,27,03,09,19.60
2016,08,27,03,10,19.60
2016,08,27,03,11,19.50
2016,08,27,03,12,19.50
2016,08,27,03,13,19.50
2016,08,27,03,14,19.50
2016,08,27,03,15,19.50
2016,08,27,03,16,19.50
2016,08,27,03,17,19.50
2016,08,27,03,18,19.40
2016,08,27,03,19,19.40
2016,08,27,03,20,19.40
2016,08,27,03,21,19.40
2016,08,27,03,22,19.40
2016,08,27,03,23,19.40
2016,08,27,03,24,19.40
2016,08,27,03,25,19.40
2016,08,27,03,26,19.40
2016,08,27,03,27,19.40
2016,08,27,03,28,19.40
2016,08,27,03,29,19.40
2016,08,27,03,30,19.40
2016,08,27,03,31,19.40
2016,08,27,03,32,19.30
2016,08,27,03,33,19.30
2016,08,27,03,34,19.30
2016,08,27,03,35,19.30
2016,08,27,03,36,19.30
2016,08,27,03,37,19.30
2016,08,27,03,38,19.30
2016,08,27,03,39,19.30
2016,08,27,03,40,19.30
2016,08,27,03,41,19.30
2016,08,27,03,42,19.30
2016,08,27,03,43,19.20
2016,08,27,03,44,19.20
2016,08,27,03,45,19.20
2016,08,27,03,46,19.20
2016,08,27,03,47,19.20
2016,08,27,03,48,19.20
2016,08,27,03,49,19.20
2016,08,27,03,50,19.20
2016,08,27,03,51,19.10
2016,08,27,03,52,19.10
2016,08,27,03,53,19.10
2016,08,27,03,54,19.10
2016,08,27,03,55,19.10
2016,08,27,03,56,19.10
2016,08,27,03,57,19.10
2016,08,27,03,58,19.10
2016,08,27,03,59,19.10
2016,08,27,04,00,19.10
2016,08,27,04,01,19.10
2016,08,27,04,02,19.10
2016,08,27,04,03,19.10
2016,08,27,04,04,19.10
2016,08,27,04,05,19.10
2016,08,27,04,06,19.10
2016,08,27,04,07,19.00
2016,08,27,04,08,18.90
2016,08,27,04,09,18.90
2016,08,27,04,10,18.90
2016,08,27,04,11,18.90
2016,08,27,04,12,18.90
2016,08,27,04,13,18.90
2016,08,27,04,14,18.90
2016,08,27,04,15,18.90
2016,08,27,04,16,18.90
2016,08,27,04,17,18.90
2016,08,27,04,18,18.90
2016,08,27,04,19,18.90
2016,08,27,04,20,18.90
2016,08,27,04,21,18.90
2016,08,27,04,22,18.90
2016,08,27,04,23,18.80
2016,08,27,04,24,18.80
2016,08,27,04,25,18.80
2016,08,27,04,26,18.80
2016,08,27,04,27,18.80
2016,08,27,04,28,18.80
2016,08,27,04,29,18.80
2016,08,27,04,30,18.70
2016,08,27,04,31,18.70
2016,08,27,04,32,18.70
2016,08,27,04,33,18.70
2016,08,27,04,34,18.70
2016,08,27,04,35,18.70
2016,08,27,04,36,18.70
2016,08,27,04,37,18.70
2016,08,27,04,38,18.70
2016,08,27,04,39,18.70
2016,08,27,04,40,18.70
2016,08,27,04,41,18.70
2016,08,27,04,42,18.70
2016,08,27,04,43,18.70
2016,08,27,04,44,18.70
2016,08,27,04,45,18.70
2016,08,27,04,46,18.70
2016,08,27,04,47,18.70
2016,08,27,04,48,18.70
2016,08,27,04,49,18.70
2016,08,27,04,50,18.70
2016,08,27,04,51,18.70
2016,08,27,04,52,18.70
2016,08,27,04,53,18.70
2016,08,27,04,54,18.70
2016,08,27,04,55,18.70
2016,08,27,04,56,18.70
2016,08,27,04,57,18.70
2016,08,27,04,58,18.70
2016,08,27,04,59,18.70
2016,08,27,05,00,18.70
2016,08,27,05,01,18.70
2016,08,27,05,02,18.60
2016,08,27,05,03,18.60
2016,08,27,05,04,18.60
2016,08,27,05,05,18.70
2016,08,27,05,06,18.70
2016,08,27,05,07,18.70
2016,08,27,05,08,18.70
2016,08,27,05,09,18.80
2016,08,27,05,10,18.80
2016,08,27,05,11,18.80
2016,08,27,05,12,18.90
2016,08,27,05,13,18.90
2016,08,27,05,14,18.90
2016,08,27,05,15,18.90
2016,08,27,05,16,18.90
2016,08,27,05,17,18.90
2016,08,27,05,18,18.90
2016,08,27,05,19,18.90
2016,08,27,05,20,18.90
2016,08,27,05,21,19.00
2016,08,27,05,22,19.10
2016,08,27,05,23,19.10
2016,08,27,05,24,19.10
2016,08,27,05,25,19.10
2016,08,27,05,26,19.10
2016,08,27,05,27,19.10
2016,08,27,05,28,19.00
2016,08,27,05,29,18.90
2016,08,27,05,30,18.90
2016,08,27,05,31,18.90
2016,08,27,05,32,18.90
2016,08,27,05,33,18.90
2016,08,27,05,34,18.90
2016,08,27,05,35,18.90
2016,08,27,05,36,18.80
2016,08,27,05,37,18.80
2016,08,27,05,38,18.80
2016,08,27,05,39,18.80
2016,08,27,05,40,18.80
2016,08,27,05,41,18.80
2016,08,27,05,42,18.80
2016,08,27,05,43,18.80
2016,08,27,05,44,18.80
2016,08,27,05,45,18.80
2016,08,27,05,46,18.80
2016,08,27,05,47,18.80
2016,08,27,05,48,18.80
2016,08,27,05,49,18.90
2016,08,27,05,50,18.90
2016,08,27,05,51,18.90
2016,08,27,05,52,18.90
2016,08,27,05,53,18.90
2016,08,27,05,54,18.90
2016,08,27,05,55,18.90
2016,08,27,05,56,18.80
2016,08,27,05,57,18.80
2016,08,27,05,58,18.80
2016,08,27,05,59,18.80
2016,08,27,06,00,18.80
2016,08,27,06,01,18.80
2016,08,27,06,02,18.80
2016,08,27,06,03,18.70
2016,08,27,06,04,18.70
2016,08,27,06,05,18.70
2016,08,27,06,06,18.70
2016,08,27,06,07,18.70
2016,08,27,06,08,18.70
2016,08,27,06,09,18.60
2016,08,27,06,10,18.60
2016,08,27,06,11,18.60
2016,08,27,06,12,18.50
2016,08,27,06,13,18.50
2016,08,27,06,14,18.40
2016,08,27,06,15,18.40
2016,08,27,06,16,18.30
2016,08,27,06,17,18.30
2016,08,27,06,18,18.20
2016,08,27,06,19,18.20
2016,08,27,06,20,18.20
2016,08,27,06,21,18.20
2016,08,27,06,22,18.10
2016,08,27,06,23,18.10
2016,08,27,06,24,18.10
2016,08,27,06,25,18.00
2016,08,27,06,26,17.90
2016,08,27,06,27,17.90
2016,08,27,06,28,17.90
2016,08,27,06,29,17.90
2016,08,27,06,30,17.90
2016,08,27,06,31,17.90
2016,08,27,06,32,17.90
2016,08,27,06,33,17.90
2016,08,27,06,34,17.80
2016,08,27,06,35,17.80
2016,08,27,06,36,17.80
2016,08,27,06,37,17.80
2016,08,27,06,38,17.70
2016,08,27,06,39,17.70
2016,08,27,06,40,17.70
2016,08,27,06,41,17.70
2016,08,27,06,42,17.60
2016,08,27,06,43,17.60
2016,08,27,06,44,17.60
2016,08,27,06,45,17.60
2016,08,27,06,46,17.50
2016,08,27,06,47,17.50
2016,08,27,06,48,17.50
2016,08,27,06,49,17.50
2016,08,27,06,50,17.40
2016,08,27,06,51,17.40
2016,08,27,06,52,17.40
2016,08,27,06,53,17.40
2016,08,27,06,54,17.40
2016,08,27,06,55,17.40
2016,08,27,06,56,17.40
2016,08,27,06,57,17.40
2016,08,27,06,58,17.40
2016,08,27,06,59,17.40
2016,08,27,07,00,17.40
2016,08,27,07,01,17.40
2016,08,27,07,02,17.40
2016,08,27,07,03,17.40
2016,08,27,07,04,17.40
2016,08,27,07,05,17.50
2016,08,27,07,06,17.50
2016,08,27,07,07,17.50
2016,08,27,07,08,17.50
2016,08,27,07,09,17.50
2016,08,27,07,10,17.50
2016,08,27,07,11,17.50
2016,08,27,07,12,17.60
2016,08,27,07,13,17.60
2016,08,27,07,14,17.60
2016,08,27,07,15,17.60
2016,08,27,07,16,17.60
2016,08,27,07,17,17.70
2016,08,27,07,18,17.70
2016,08,27,07,19,17.70
2016,08,27,07,20,17.70
2016,08,27,07,21,17.70
2016,08,27,07,22,17.70
2016,08,27,07,23,17.80
2016,08,27,07,24,17.80
2016,08,27,07,25,17.80
2016,08,27,07,26,17.80
2016,08,27,07,27,17.90
2016,08,27,07,28,17.90
2016,08,27,07,29,17.90
2016,08,27,07,30,17.90
2016,08,27,07,31,17.90
2016,08,27,07,32,17.90
2016,08,27,07,33,18.00
2016,08,27,07,34,18.10
2016,08,27,07,35,18.10
2016,08,27,07,36,18.20
2016,08,27,07,37,18.20
2016,08,27,07,38,18.20
2016,08,27,07,39,18.20
2016,08,27,07,40,18.30
2016,08,27,07,41,18.30
2016,08,27,07,42,18.40
2016,08,27,07,43,18.40
2016,08,27,07,44,18.50
2016,08,27,07,45,18.50
2016,08,27,07,46,18.60
2016,08,27,07,47,18.60
2016,08,27,07,48,18.70
2016,08,27,07,49,18.70
2016,08,27,07,50,18.70
2016,08,27,07,51,18.80
2016,08,27,07,52,18.80
2016,08,27,07,53,18.80
2016,08,27,07,54,18.90
2016,08,27,07,55,18.90
2016,08,27,07,56,18.90
2016,08,27,07,57,18.90
2016,08,27,07,58,18.90
2016,08,27,07,59,18.90
2016,08,27,08,00,18.90
2016,08,27,08,01,18.90
2016,08,27,08,02,19.00
2016,08,27,08,03,19.10
2016,08,27,08,04,19.10
2016,08,27,08,05,19.10
2016,08,27,08,06,18.90
2016,08,27,08,07,18.90
2016,08,27,08,08,18.90
2016,08,27,08,09,18.90
2016,08,27,08,10,18.90
2016,08,27,08,11,18.80
2016,08,27,08,12,18.70
2016,08,27,08,13,18.70
2016,08,27,08,14,18.70
2016,08,27,08,15,18.60
2016,08,27,08,16,18.60
2016,08,27,08,17,18.60
2016,08,27,08,18,18.60
2016,08,27,08,19,18.50
2016,08,27,08,20,18.50
2016,08,27,08,21,18.50
2016,08,27,08,22,18.50
2016,08,27,08,23,18.50
2016,08,27,08,24,18.50
2016,08,27,08,25,18.60
2016,08,27,08,26,18.60
2016,08,27,08,27,18.60
2016,08,27,08,28,18.60
2016,08,27,08,29,18.60
2016,08,27,08,30,18.50
2016,08,27,08,31,18.50
2016,08,27,08,32,18.40
2016,08,27,08,33,18.40
2016,08,27,08,34,18.40
2016,08,27,08,35,18.40
2016,08,27,08,36,18.40
2016,08,27,08,37,18.50
2016,08,27,08,38,18.50
2016,08,27,08,39,18.50
2016,08,27,08,40,18.50
2016,08,27,08,41,18.40
2016,08,27,08,42,18.40
2016,08,27,08,43,18.40
2016,08,27,08,44,18.30
2016,08,27,08,45,18.30
2016,08,27,08,46,18.30
2016,08,27,08,47,18.20
2016,08,27,08,48,18.20
2016,08,27,08,49,18.20
2016,08,27,08,50,18.20
2016,08,27,08,51,18.10
2016,08,27,08,52,18.10
2016,08,27,08,53,18.10
2016,08,27,08,54,18.20
2016,08,27,08,55,18.20
2016,08,27,08,56,18.20
2016,08,27,08,57,18.20
2016,08,27,08,58,18.10
2016,08,27,08,59,18.10
2016,08,27,09,00,18.00
2016,08,27,09,01,17.90
2016,08,27,09,02,17.90
2016,08,27,09,03,17.90
2016,08,27,09,04,17.90
2016,08,27,09,05,17.90
2016,08,27,09,06,17.90
2016,08,27,09,07,18.00
2016,08,27,09,08,18.10
2016,08,27,09,09,18.20
2016,08,27,09,10,18.20
2016,08,27,09,11,18.20
2016,08,27,09,12,18.20
2016,08,27,09,13,18.20
2016,08,27,09,14,18.20
2016,08,27,09,15,18.20
2016,08,27,09,16,18.20
2016,08,27,09,17,18.20
2016,08,27,09,18,18.20
2016,08,27,09,19,18.20
2016,08,27,09,20,18.20
2016,08,27,09,21,18.20
2016,08,27,09,22,18.20
2016,08,27,09,23,18.20
2016,08,27,09,24,18.20
2016,08,27,09,25,18.20
2016,08,27,09,26,18.20
2016,08,27,09,27,18.20
2016,08,27,09,28,18.10
2016,08,27,09,29,18.00
2016,08,27,09,30,17.90
2016,08,27,09,31,17.90
2016,08,27,09,32,17.80
2016,08,27,09,33,17.80
2016,08,27,09,34,17.80
2016,08,27,09,35,17.70
2016,08,27,09,36,17.70
2016,08,27,09,37,17.70
2016,08,27,09,38,17.60
2016,08,27,09,39,17.60
2016,08,27,09,40,17.50
2016,08,27,09,41,17.50
2016,08,27,09,42,17.60
2016,08,27,09,43,17.60
2016,08,27,09,44,17.60
2016,08,27,09,45,17.60
2016,08,27,09,46,17.70
2016,08,27,09,47,17.70
2016,08,27,09,48,17.80
2016,08,27,09,49,17.80
2016,08,27,09,50,17.90
2016,08,27,09,51,18.00
2016,08,27,09,52,18.10
2016,08,27,09,53,18.20
2016,08,27,09,54,18.20
2016,08,27,09,55,18.30
2016,08,27,09,56,18.40
2016,08,27,09,57,18.40
2016,08,27,09,58,18.50
2016,08,27,09,59,18.60
2016,08,27,10,00,18.70
2016,08,27,10,01,18.70
2016,08,27,10,02,18.70
2016,08,27,10,03,18.70
2016,08,27,10,04,18.70
2016,08,27,10,05,18.70
2016,08,27,10,06,18.70
2016,08,27,10,07,18.80
2016,08,27,10,08,18.80
2016,08,27,10,09,18.90
2016,08,27,10,10,18.90
2016,08,27,10,11,18.80
2016,08,27,10,12,18.90
2016,08,27,10,13,18.90
2016,08,27,10,14,18.90
2016,08,27,10,15,18.90
2016,08,27,10,16,18.90
2016,08,27,10,17,19.10
2016,08,27,10,18,19.10
2016,08,27,10,19,19.10
2016,08,27,10,20,19.20
2016,08,27,10,21,19.20
2016,08,27,10,22,19.30
2016,08,27,10,23,19.30
2016,08,27,10,24,19.40
2016,08,27,10,25,19.40
2016,08,27,10,26,19.50
2016,08,27,10,27,19.40
2016,08,27,10,28,19.50
2016,08,27,10,29,19.50
2016,08,27,10,30,19.50
2016,08,27,10,31,19.50
2016,08,27,10,32,19.60
2016,08,27,10,33,19.60
2016,08,27,10,34,19.70
2016,08,27,10,35,19.80
2016,08,27,10,36,19.80
2016,08,27,10,37,19.80
2016,08,27,10,38,19.80
2016,08,27,10,39,19.80
2016,08,27,10,40,19.80
2016,08,27,10,41,19.70
2016,08,27,10,42,19.60
2016,08,27,10,43,19.60
2016,08,27,10,44,19.50
2016,08,27,10,45,19.60
2016,08,27,10,46,19.60
2016,08,27,10,47,19.70
2016,08,27,10,48,19.70
2016,08,27,10,49,19.80
2016,08,27,10,50,19.80
2016,08,27,10,51,19.80
2016,08,27,10,52,19.90
2016,08,27,10,53,19.90
2016,08,27,10,54,19.90
2016,08,27,10,55,19.90
2016,08,27,10,56,19.90
2016,08,27,10,57,19.90
2016,08,27,10,58,19.90
2016,08,27,10,59,19.90
2016,08,27,11,00,19.90
2016,08,27,11,01,19.90
2016,08,27,11,02,19.90
2016,08,27,11,03,19.90
2016,08,27,11,04,19.90
2016,08,27,11,05,19.90
2016,08,27,11,06,19.90
2016,08,27,11,07,19.90
2016,08,27,11,08,19.90
2016,08,27,11,09,19.90
2016,08,27,11,10,19.90
2016,08,27,11,11,19.90
2016,08,27,11,12,19.90
2016,08,27,11,13,19.90
2016,08,27,11,14,19.90
2016,08,27,11,15,19.90
2016,08,27,11,16,19.90
2016,08,27,11,17,19.90
2016,08,27,11,18,19.90
2016,08,27,11,19,20.00
2016,08,27,11,20,20.10
2016,08,27,11,21,20.20
2016,08,27,11,22,20.20
2016,08,27,11,23,20.20
2016,08,27,11,24,20.20
2016,08,27,11,25,20.20
2016,08,27,11,26,20.10
2016,08,27,11,27,20.10
2016,08,27,11,28,20.10
2016,08,27,11,29,20.20
2016,08,27,11,30,20.20
2016,08,27,11,31,20.20
2016,08,27,11,32,20.30
2016,08,27,11,33,20.30
2016,08,27,11,34,20.40
2016,08,27,11,35,20.40
2016,08,27,11,36,20.40
2016,08,27,11,37,20.40
2016,08,27,11,38,20.30
2016,08,27,11,39,20.20
2016,08,27,11,40,20.10
2016,08,27,11,41,20.10
2016,08,27,11,42,20.10
2016,08,27,11,43,20.10
2016,08,27,11,44,20.20
2016,08,27,11,45,20.20
2016,08,27,11,46,20.20
2016,08,27,11,47,20.20
2016,08,27,11,48,20.40
2016,08,27,11,49,20.50
2016,08,27,11,50,20.60
2016,08,27,11,51,20.60
2016,08,27,11,52,20.60
2016,08,27,11,53,20.70
2016,08,27,11,54,20.80
2016,08,27,11,55,20.90
2016,08,27,11,56,21.00
2016,08,27,11,57,21.10
2016,08,27,11,58,21.20
2016,08,27,11,59,21.20
2016,08,27,12,00,21.20
2016,08,27,12,01,21.30
2016,08,27,12,02,21.20
2016,08,27,12,03,21.10
2016,08,27,12,04,21.10
2016,08,27,12,05,21.10
2016,08,27,12,06,21.10
2016,08,27,12,07,21.10
2016,08,27,12,08,21.00
2016,08,27,12,09,20.90
2016,08,27,12,10,20.80
2016,08,27,12,11,20.70
2016,08,27,12,12,20.60
2016,08,27,12,13,20.70
2016,08,27,12,14,20.70
2016,08,27,12,15,20.80
2016,08,27,12,16,20.80
2016,08,27,12,17,20.90
2016,08,27,12,18,20.90
2016,08,27,12,19,20.90
2016,08,27,12,20,20.70
2016,08,27,12,21,20.70
2016,08,27,12,22,20.70
2016,08,27,12,23,20.60
2016,08,27,12,24,20.60
2016,08,27,12,25,20.70
2016,08,27,12,26,20.70
2016,08,27,12,27,20.80
2016,08,27,12,28,20.80
2016,08,27,12,29,20.70
2016,08,27,12,30,20.70
2016,08,27,12,31,20.60
2016,08,27,12,32,20.50
2016,08,27,12,33,20.50
2016,08,27,12,34,20.50
2016,08,27,12,35,20.50
2016,08,27,12,36,20.60
2016,08,27,12,37,20.60
2016,08,27,12,38,20.60
2016,08,27,12,39,20.60
2016,08,27,12,40,20.50
2016,08,27,12,41,20.50
2016,08,27,12,42,20.60
2016,08,27,12,43,20.50
2016,08,27,12,44,20.50
2016,08,27,12,45,20.40
2016,08,27,12,46,20.40
2016,08,27,12,47,20.40
2016,08,27,12,48,20.50
2016,08,27,12,49,20.50
2016,08,27,12,50,20.60
2016,08,27,12,51,20.60
2016,08,27,12,52,20.70
2016,08,27,12,53,20.70
2016,08,27,12,54,20.70
2016,08,27,12,55,20.80
2016,08,27,12,56,20.80
2016,08,27,12,57,20.80
2016,08,27,12,58,20.80
2016,08,27,12,59,20.90
2016,08,27,13,00,20.90
2016,08,27,13,01,21.00
2016,08,27,13,02,21.00
2016,08,27,13,03,21.10
2016,08,27,13,04,21.30
2016,08,27,13,05,21.30
2016,08,27,13,06,21.40
2016,08,27,13,07,21.60
2016,08,27,13,08,21.60
2016,08,27,13,09,21.60
2016,08,27,13,10,21.60
2016,08,27,13,11,21.60
2016,08,27,13,12,21.50
2016,08,27,13,13,21.40
2016,08,27,13,14,21.30
2016,08,27,13,15,21.30
2016,08,27,13,16,21.30
2016,08,27,13,17,21.30
2016,08,27,13,18,21.30
2016,08,27,13,19,21.30
2016,08,27,13,20,21.30
2016,08,27,13,21,21.20
2016,08,27,13,22,21.20
2016,08,27,13,23,21.20
2016,08,27,13,24,21.20
2016,08,27,13,25,21.30
2016,08,27,13,26,21.30
2016,08,27,13,27,21.30
2016,08,27,13,28,21.30
2016,08,27,13,29,21.30
2016,08,27,13,30,21.30
2016,08,27,13,31,21.30
2016,08,27,13,32,21.40
2016,08,27,13,33,21.50
2016,08,27,13,34,21.50
2016,08,27,13,35,21.50
2016,08,27,13,36,21.50
2016,08,27,13,37,21.40
2016,08,27,13,38,21.50
2016,08,27,13,39,21.40
2016,08,27,13,40,21.40
2016,08,27,13,41,21.50
2016,08,27,13,42,21.60
2016,08,27,13,43,21.60
2016,08,27,13,44,21.60
2016,08,27,13,45,21.60
2016,08,27,13,46,21.50
2016,08,27,13,47,21.40
2016,08,27,13,48,21.40
2016,08,27,13,49,21.60
2016,08,27,13,50,21.60
2016,08,27,13,51,21.60
2016,08,27,13,52,21.70
2016,08,27,13,53,21.80
2016,08,27,13,54,21.80
2016,08,27,13,55,21.80
2016,08,27,13,56,21.90
2016,08,27,13,57,22.00
2016,08,27,13,58,22.00
2016,08,27,13,59,22.00
2016,08,27,14,00,22.10
2016,08,27,14,01,22.20
2016,08,27,14,02,22.20
2016,08,27,14,03,22.20
2016,08,27,14,04,22.30
2016,08,27,14,05,22.30
2016,08,27,14,06,22.40
2016,08,27,14,07,22.40
2016,08,27,14,08,22.40
2016,08,27,14,09,22.40
2016,08,27,14,10,22.50
2016,08,27,14,11,22.60
2016,08,27,14,12,22.70
2016,08,27,14,13,22.70
2016,08,27,14,14,22.80
2016,08,27,14,15,22.80
2016,08,27,14,16,22.90
2016,08,27,14,17,22.90
2016,08,27,14,18,22.90
2016,08,27,14,19,23.00
2016,08,27,14,20,23.10
2016,08,27,14,21,23.20
2016,08,27,14,22,23.20
2016,08,27,14,23,23.30
2016,08,27,14,24,23.30
2016,08,27,14,25,23.20
2016,08,27,14,26,23.10
2016,08,27,14,27,23.10
2016,08,27,14,28,23.10
2016,08,27,14,29,23.10
2016,08,27,14,30,23.20
2016,08,27,14,31,23.20
2016,08,27,14,32,23.20
2016,08,27,14,33,23.20
2016,08,27,14,34,23.20
2016,08,27,14,35,23.30
2016,08,27,14,36,23.30
2016,08,27,14,37,23.20
2016,08,27,14,38,23.10
2016,08,27,14,39,23.10
2016,08,27,14,40,23.00
2016,08,27,14,41,22.90
2016,08,27,14,42,22.90
2016,08,27,14,43,23.10
2016,08,27,14,44,23.10
2016,08,27,14,45,23.00
2016,08,27,14,46,22.90
2016,08,27,14,47,22.90
2016,08,27,14,48,22.90
2016,08,27,14,49,22.90
2016,08,27,14,50,22.90
2016,08,27,14,51,22.90
2016,08,27,14,52,22.90
2016,08,27,14,53,22.90
2016,08,27,14,54,22.90
2016,08,27,14,55,23.00
2016,08,27,14,56,23.10
2016,08,27,14,57,23.10
2016,08,27,14,58,23.10
2016,08,27,14,59,23.10
2016,08,27,15,00,23.00
2016,08,27,15,01,22.90
2016,08,27,15,02,22.90
2016,08,27,15,03,22.90
2016,08,27,15,04,22.90
2016,08,27,15,05,22.90
2016,08,27,15,06,23.10
2016,08,27,15,07,23.10
2016,08,27,15,08,23.00
2016,08,27,15,09,23.00
2016,08,27,15,10,23.10
2016,08,27,15,11,23.10
2016,08,27,15,12,23.20
2016,08,27,15,13,23.30
2016,08,27,15,14,23.30
2016,08,27,15,15,23.30
2016,08,27,15,16,23.30
2016,08,27,15,17,23.30
2016,08,27,15,18,23.20
2016,08,27,15,19,23.20
2016,08,27,15,20,23.20
2016,08,27,15,21,23.20
2016,08,27,15,22,23.20
2016,08,27,15,23,23.00
2016,08,27,15,24,22.90
2016,08,27,15,25,22.90
2016,08,27,15,26,22.70
2016,08,27,15,27,22.60
2016,08,27,15,28,22.50
2016,08,27,15,29,22.50
2016,08,27,15,30,22.40
2016,08,27,15,31,22.50
2016,08,27,15,32,22.50
2016,08,27,15,33,22.50
2016,08,27,15,34,22.30
2016,08,27,15,35,22.20
2016,08,27,15,36,22.20
2016,08,27,15,37,22.10
2016,08,27,15,38,22.00
2016,08,27,15,39,22.00
2016,08,27,15,40,22.00
2016,08,27,15,41,22.10
2016,08,27,15,42,22.10
2016,08,27,15,43,22.10
2016,08,27,15,44,22.10
2016,08,27,15,45,22.00
2016,08,27,15,46,22.00
2016,08,27,15,47,21.90
2016,08,27,15,48,21.80
2016,08,27,15,49,21.80
2016,08,27,15,50,21.70
2016,08,27,15,51,21.80
2016,08,27,15,52,21.80
2016,08,27,15,53,21.80
2016,08,27,15,54,21.70
2016,08,27,15,55,21.70
2016,08,27,15,56,21.70
2016,08,27,15,57,21.80
2016,08,27,15,58,21.80
2016,08,27,15,59,22.00
2016,08,27,16,00,22.00
2016,08,27,16,01,21.90
2016,08,27,16,02,21.80
2016,08,27,16,03,21.60
2016,08,27,16,04,21.60
2016,08,27,16,05,21.40
2016,08,27,16,06,21.30
2016,08,27,16,07,21.30
2016,08,27,16,08,21.20
2016,08,27,16,09,21.30
2016,08,27,16,10,21.30
2016,08,27,16,11,21.40
2016,08,27,16,12,21.60
2016,08,27,16,13,21.70
2016,08,27,16,14,21.90
2016,08,27,16,15,22.00
2016,08,27,16,16,22.00
2016,08,27,16,17,22.10
2016,08,27,16,18,22.20
2016,08,27,16,19,22.30
2016,08,27,16,20,22.30
2016,08,27,16,21,22.30
2016,08,27,16,22,22.20
2016,08,27,16,23,22.10
2016,08,27,16,24,22.00
2016,08,27,16,25,22.00
2016,08,27,16,26,21.90
2016,08,27,16,27,21.80
2016,08,27,16,28,21.70
2016,08,27,16,29,21.60
2016,08,27,16,30,21.60
2016,08,27,16,31,21.60
2016,08,27,16,32,21.60
2016,08,27,16,33,21.50
2016,08,27,16,34,21.30
2016,08,27,16,35,21.30
2016,08,27,16,36,21.30
2016,08,27,16,37,21.30
2016,08,27,16,38,21.30
2016,08,27,16,39,21.10
2016,08,27,16,40,21.10
2016,08,27,16,41,21.00
2016,08,27,16,42,21.00
2016,08,27,16,43,21.00
2016,08,27,16,44,21.00
2016,08,27,16,45,21.00
2016,08,27,16,46,20.90
2016,08,27,16,47,20.90
2016,08,27,16,48,20.90
2016,08,27,16,49,20.90
2016,08,27,16,50,20.90
2016,08,27,16,51,20.90
2016,08,27,16,52,20.80
2016,08,27,16,53,20.90
2016,08,27,16,54,20.90
2016,08,27,16,55,20.90
2016,08,27,16,56,20.90
2016,08,27,16,57,20.90
2016,08,27,16,58,20.80
2016,08,27,16,59,20.70
2016,08,27,17,00,20.70
2016,08,27,17,01,20.70
2016,08,27,17,02,20.70
2016,08,27,17,03,20.60
2016,08,27,17,04,20.70
2016,08,27,17,05,20.70
2016,08,27,17,06,20.80
2016,08,27,17,07,20.80
2016,08,27,17,08,20.70
2016,08,27,17,09,20.70
2016,08,27,17,10,20.60
2016,08,27,17,11,20.60
2016,08,27,17,12,20.70
2016,08,27,17,13,20.70
2016,08,27,17,14,20.80
2016,08,27,17,15,20.80
2016,08,27,17,16,20.90
2016,08,27,17,17,20.80
2016,08,27,17,18,20.80
2016,08,27,17,19,20.70